GFSSW_sfc_30mbdewp_000.txt.gz
Dewpoint
56 55 55 55 55 55 56 57 58 58 58 57 56 58 57 56 53 41 35 45 50 55 57 51 43 42 43 43 47 44 41 30 29 31 34 28 26 23 28 28 32 35 37 37 37
58 57 56 56 56 56 57 57 57 56 56 57 58 58 56 57 40 34 43 51 52 55 48 38 35 38 39 38 42 40 31 32 37 34 34 28 26 24 26 31 34 36 35 34 35
58 58 58 58 58 58 58 58 57 58 57 58 58 56 57 54 36 32 47 48 50 52 47 38 38 38 35 36 35 33 34 37 34 33 31 27 24 24 23 29 34 35 32 32 31
58 58 58 58 58 58 58 58 58 58 58 59 59 58 58 39 22 33 41 43 44 44 39 34 35 32 32 30 31 29 32 32 33 30 28 26 26 23 24 32 33 34 33 32 30
58 58 58 58 58 58 58 58 58 58 58 58 58 59 45 27 19 32 34 40 37 35 36 33 31 31 29 28 28 26 29 29 32 28 27 27 26 24 29 38 37 34 32 31 30
58 58 58 58 58 58 58 58 58 58 57 58 59 59 37 19 20 25 28 28 31 34 34 36 32 26 27 23 24 25 27 28 29 26 25 24 26 30 31 38 37 33 32 31 30
57 58 58 58 58 58 57 56 56 55 55 55 59 48 31 15 18 21 26 26 31 34 34 35 33 28 25 24 26 25 24 24 25 25 25 26 28 30 32 35 32 32 32 31 31
56 57 57 57 58 58 57 56 54 53 52 53 59 41 24 20 24 22 23 25 32 34 36 37 36 33 30 27 22 21 21 22 23 24 26 26 20 29 31 33 30 31 31 32 32
56 56 56 57 57 57 57 56 52 54 55 55 43 38 20 23 22 23 24 25 30 32 34 33 34 29 28 24 21 21 16 19 23 24 25 25 23 26 33 32 31 30 30 32 32
55 56 56 56 57 57 56 53 51 53 48 45 40 25 19 13 21 21 23 27 29 30 31 29 29 27 25 23 17 17 18 17 17 25 24 25 24 30 33 32 31 31 31 31 32
55 56 56 56 57 57 47 41 36 37 33 28 26 20 19 17 22 20 23 27 29 29 27 29 25 23 22 21 20 19 19 16 16 24 24 22 23 25 31 33 31 31 31 31 31
54 56 56 56 56 56 51 39 37 37 27 27 27 24 24 20 15 17 23 25 27 27 27 26 24 24 21 22 20 20 20 16 16 25 24 24 24 24 24 31 32 31 31 31 31
53 55 56 56 55 47 36 37 41 38 30 27 28 24 23 23 15 14 22 24 26 25 24 23 22 22 22 22 22 22 19 16 15 22 23 23 23 22 22 22 30 33 32 31 31
54 53 54 53 39 31 31 39 41 39 27 24 23 24 24 22 19 19 21 24 24 23 24 23 23 21 20 18 19 17 21 17 19 18 16 22 17 18 18 22 21 26 32 32 31
57 54 53 53 40 31 40 41 40 37 24 24 21 25 23 21 28 27 27 27 28 23 23 22 22 21 19 18 18 19 24 22 22 21 20 20 19 19 19 19 21 22 26 32 32
57 56 52 44 44 41 43 40 37 28 19 21 22 19 21 21 22 29 27 30 30 25 24 22 24 23 21 21 22 26 24 24 24 23 20 20 19 17 19 19 20 22 24 29 32
52 55 52 41 42 48 45 34 26 21 22 21 20 19 19 19 19 25 26 24 21 20 21 23 22 22 22 24 25 25 21 17 23 24 20 18 15 17 18 19 16 21 26 29 31
50 53 49 41 40 48 42 27 22 23 21 22 20 20 18 18 18 19 23 23 25 22 19 18 17 22 22 23 23 25 21 16 10 15 18 19 16 16 17 20 21 25 26 30 31
50 48 46 44 44 46 38 23 22 23 22 22 21 20 19 20 18 19 20 22 23 24 20 17 17 21 22 22 22 24 23 23 20 19 17 16 17 17 16 19 22 23 25 30 31
49 45 42 45 42 39 34 29 27 29 30 29 22 23 20 21 20 19 20 22 22 23 24 20 18 21 24 24 23 22 26 22 21 13 10 12 11 15 15 18 19 21 24 28 31
49 37 48 47 43 32 30 32 32 32 31 27 26 24 25 24 24 22 20 22 25 25 25 23 22 23 26 24 22 23 24 24 22 17 10 9 12 14 11 11 18 18 21 27 31
40 29 46 44 38 34 31 30 32 32 33 32 30 29 27 27 27 27 26 25 25 25 24 25 24 22 24 26 25 24 22 23 17 15 18 17 16 19 19 12 12 16 20 25 31
33 32 43 43 31 26 26 24 26 28 32 31 30 30 31 31 30 28 28 29 29 28 25 26 25 22 23 26 27 25 23 22 22 20 18 15 16 19 17 18 14 15 20 24 27
32 19 24 37 36 34 33 30 30 32 32 37 37 38 36 35 35 33 33 33 38 33 34 32 26 23 21 22 26 24 24 24 22 20 19 19 20 21 16 15 18 19 20 23 26
29 24 30 20 25 26 24 23 23 26 29 31 29 29 34 35 37 39 39 39 38 40 39 33 26 25 25 25 25 25 24 24 23 23 21 20 21 22 23 24 19 19 22 22 24
33 33 34 31 27 22 18 14 15 19 21 24 28 29 32 31 36 37 40 39 40 41 39 40 36 33 26 25 25 24 25 26 24 24 24 23 23 25 25 24 24 21 22 23 23
38 37 35 33 28 25 22 19 18 18 17 17 18 19 29 31 31 35 41 41 39 37 34 34 34 35 33 29 25 24 25 25 26 26 24 23 24 26 26 25 25 26 24 23 24

GFSSW_sfc_30mbdewp_006.txt.gz
Dewpoint
56 55 55 56 55 56 56 57 58 58 58 57 57 58 58 57 53 42 37 42 48 54 55 50 49 44 44 45 47 47 36 30 32 33 33 30 23 26 31 32 36 37 34 35 38
58 58 58 57 58 58 58 58 58 57 58 58 58 58 58 58 43 33 39 49 52 54 47 42 38 40 40 40 41 37 26 28 36 34 31 28 24 27 30 34 34 34 36 37 37
57 58 58 58 58 58 58 58 58 58 59 59 58 58 58 58 36 33 46 50 50 50 46 44 42 38 36 38 36 36 31 37 33 34 30 27 24 26 29 31 35 33 35 36 36
57 58 58 58 58 58 58 58 58 58 59 58 58 59 60 47 18 35 46 49 47 48 40 39 36 35 34 32 34 32 35 34 33 30 30 27 28 23 30 28 34 35 35 35 35
57 58 58 58 58 58 58 59 59 58 58 57 58 60 45 34 26 33 44 45 43 37 35 36 33 33 30 33 31 31 29 32 32 30 28 28 25 24 26 35 35 35 34 34 34
57 57 57 57 57 58 58 58 58 58 58 57 58 59 39 24 27 31 36 30 33 34 34 36 35 33 29 27 28 27 29 31 32 30 27 27 27 27 28 35 35 33 32 32 32
56 57 57 57 57 57 57 58 57 56 55 58 58 54 39 27 21 32 31 27 31 32 34 37 36 33 30 23 26 29 27 29 29 28 25 27 25 26 30 35 34 32 32 32 32
56 56 56 57 56 56 57 57 56 55 56 57 58 46 28 28 24 22 24 24 29 32 35 37 37 34 32 28 24 24 24 21 23 27 26 25 15 23 32 34 33 32 32 32 32
56 56 56 56 56 56 56 54 53 54 56 57 46 40 29 24 15 22 22 23 28 32 33 34 34 31 29 24 20 22 14 19 19 28 26 23 18 23 31 37 35 33 32 32 32
55 55 56 57 57 57 54 51 50 47 45 49 46 35 30 18 21 23 24 25 29 30 32 29 30 29 27 23 10 13 17 18 16 23 27 25 23 24 31 36 34 34 34 33 33
57 56 55 56 56 56 43 41 36 37 35 28 31 26 22 22 23 22 25 25 28 30 27 29 23 19 24 25 20 16 19 18 20 22 25 24 24 25 27 34 34 33 33 33 32
55 56 57 55 55 54 50 39 37 37 31 34 33 34 31 21 17 18 25 25 27 26 29 28 23 20 26 26 24 22 18 16 20 22 24 23 24 26 28 30 32 32 32 32 32
52 54 55 56 53 47 33 38 42 38 28 28 33 31 29 22 20 18 22 25 26 26 27 25 25 28 25 25 25 24 20 20 19 21 24 24 23 24 26 28 30 32 32 32 31
51 52 52 55 43 36 38 42 41 38 26 26 27 26 25 24 20 25 24 24 24 24 26 27 27 25 27 25 24 21 24 23 21 20 17 23 13 17 20 20 25 29 31 32 32
52 52 52 54 29 39 41 44 40 38 11 26 23 25 25 21 24 25 26 25 22 25 26 24 24 26 25 24 23 21 24 23 22 20 20 20 18 17 20 18 17 19 23 29 32
51 52 52 46 44 38 47 44 37 25 12 22 21 21 22 22 22 28 26 28 30 27 24 24 27 25 24 24 24 23 23 25 27 24 18 19 18 13 15 17 16 16 17 22 32
50 51 52 50 40 43 47 34 22 17 24 22 23 21 21 20 21 24 24 22 18 18 16 19 17 24 24 22 26 24 21 16 16 19 15 18 19 16 14 15 15 14 17 23 31
48 51 53 48 41 43 38 26 19 22 25 30 31 28 19 20 21 22 26 24 26 23 22 16 12 20 24 23 21 24 20 16 10 10 10 20 15 14 19 17 17 19 20 23 32
48 47 47 47 47 44 34 23 22 24 30 31 31 28 21 22 23 22 24 23 24 25 19 17 19 22 23 23 23 21 22 20 15 17 15 16 21 18 22 21 20 21 21 23 29
45 47 46 49 41 40 31 27 28 32 30 31 30 29 27 27 28 26 24 24 22 26 25 22 20 21 21 24 24 22 24 20 21 15 13 13 14 12 14 15 16 20 22 23 30
43 39 45 47 38 32 31 31 32 32 33 29 29 30 30 29 29 28 27 28 40 39 37 29 24 25 25 23 21 23 22 24 22 20 15 13 13 16 15 15 14 16 21 24 29
39 35 40 44 36 36 33 32 34 32 29 34 34 37 34 31 34 34 31 31 43 42 39 40 39 31 27 25 25 23 21 21 20 19 20 17 15 17 16 16 17 16 18 25 31
36 32 33 41 27 31 32 30 28 23 17 20 28 31 28 33 30 36 37 39 43 40 39 40 37 33 32 31 29 28 28 27 22 22 20 19 19 21 21 20 18 19 20 24 28
33 22 30 32 32 28 27 23 22 20 19 23 20 26 24 22 24 25 28 33 28 35 39 40 37 36 31 33 33 31 31 34 33 25 22 21 21 22 21 18 19 19 19 21 25
34 34 34 21 24 29 28 24 20 20 25 24 22 25 24 23 22 22 23 23 26 29 39 36 30 31 32 30 30 29 28 29 31 31 28 30 29 23 23 23 23 21 19 20 23
34 32 35 32 32 29 27 22 23 28 28 24 26 27 26 24 24 25 27 29 27 29 30 34 26 27 27 28 26 23 25 28 31 26 29 32 32 31 27 25 24 23 21 20 21
41 40 36 31 29 28 27 27 28 29 29 28 29 29 28 27 28 29 31 31 30 29 28 27 28 24 20 21 21 20 20 26 24 23 29 30 37 35 33 34 29 24 25 22 19

GFSSW_sfc_30mbdewp_009.txt.gz
Dewpoint
56 55 55 56 55 56 56 57 58 58 58 57 57 58 59 58 54 42 36 40 46 54 56 49 47 43 44 43 47 45 36 32 31 33 33 32 27 27 32 31 35 35 35 36 38
58 58 58 58 58 58 58 58 58 58 58 59 59 59 58 59 45 33 37 48 52 53 46 42 37 39 39 39 40 34 28 29 35 36 34 31 25 27 30 32 33 34 36 37 39
55 57 58 58 58 58 58 58 58 58 59 59 59 58 59 58 36 29 45 50 51 51 45 42 42 38 36 38 36 37 26 28 36 33 33 30 26 28 29 30 32 31 34 37 39
56 57 58 58 58 58 58 59 58 58 59 58 58 59 59 46 10 33 49 49 50 50 39 39 36 35 34 32 34 31 35 36 34 31 30 28 27 23 30 27 33 34 35 37 38
57 57 58 57 57 57 58 58 58 58 59 57 58 60 47 33 26 33 47 47 44 37 35 36 33 33 31 33 32 31 30 34 33 31 29 29 27 26 25 30 35 35 36 36 36
57 57 57 57 57 57 57 57 58 58 57 57 58 58 39 22 28 32 38 33 34 34 33 36 35 34 31 27 28 28 30 30 32 30 29 27 27 27 26 29 34 35 34 35 35
56 57 57 57 56 56 56 56 55 56 56 57 58 52 38 27 23 31 34 27 30 32 33 37 36 33 30 25 26 28 26 28 30 30 28 27 25 26 27 33 32 34 34 34 34
56 56 56 57 57 56 56 56 55 54 54 56 56 42 23 33 24 29 27 24 27 32 33 36 37 34 32 29 23 24 24 22 24 29 28 25 16 21 29 32 31 32 33 33 33
56 55 56 57 57 57 57 56 55 55 56 56 43 39 28 28 16 21 21 22 26 31 32 34 34 31 29 25 21 22 15 19 21 26 26 24 17 19 25 32 31 32 33 32 32
55 56 56 56 57 56 54 52 50 48 50 49 45 28 28 20 20 22 22 25 28 30 31 30 30 29 28 24 9 14 17 18 15 18 27 24 22 22 28 34 31 33 33 33 32
54 55 55 57 55 55 45 41 33 34 33 19 26 17 22 22 23 22 24 25 28 30 26 29 24 16 22 25 20 16 17 14 17 19 24 23 24 24 25 31 32 35 34 34 33
52 52 54 55 56 54 49 38 35 36 29 34 33 34 34 24 17 18 27 20 26 24 29 28 22 22 25 26 26 24 19 18 20 21 23 21 21 25 26 28 28 30 34 34 34
52 52 53 54 54 45 33 38 42 38 27 25 33 30 28 29 23 18 24 26 25 24 26 24 19 29 26 23 22 23 23 20 17 18 24 24 21 23 25 27 29 30 31 32 33
52 52 52 53 41 35 38 42 42 36 24 23 27 26 25 24 21 25 23 22 23 22 25 26 26 24 25 25 24 17 24 24 22 22 20 23 11 15 20 21 25 27 28 31 32
52 52 52 51 30 38 43 46 40 35 9 25 23 25 25 22 22 26 26 27 20 23 27 21 24 24 26 23 25 25 24 24 24 23 21 21 18 16 19 17 17 18 23 26 29
52 51 52 46 41 41 48 42 36 21 11 22 21 21 21 22 22 28 25 27 27 25 25 21 25 25 25 25 26 25 24 25 28 24 19 19 17 14 13 16 17 18 19 20 22
51 51 51 50 40 41 44 33 22 16 24 22 26 27 20 19 21 23 24 22 16 16 17 18 19 24 22 20 25 25 22 19 16 19 16 17 17 15 14 17 17 17 16 17 18
50 52 53 51 48 44 34 25 17 22 27 33 31 30 24 20 20 23 24 22 24 21 20 17 17 18 21 20 17 23 21 17 12 13 11 20 15 14 18 19 19 19 17 18 19
48 48 47 48 46 42 29 23 22 29 30 29 27 26 24 27 29 28 24 23 25 25 20 19 18 22 23 22 23 20 21 22 18 17 15 14 16 19 21 21 20 21 20 21 22
47 46 45 47 39 36 28 26 29 32 33 31 28 30 27 28 29 30 28 29 36 41 41 31 26 25 24 24 24 23 23 19 20 16 15 16 15 14 14 14 15 16 19 21 23
40 40 42 43 39 36 28 30 32 34 23 28 29 31 32 29 30 30 31 35 42 41 41 39 35 32 32 29 27 25 23 23 22 20 17 15 16 18 17 17 17 16 16 17 19
33 32 35 39 35 36 33 33 32 28 19 17 23 34 32 24 30 32 31 33 33 37 38 40 39 33 33 34 33 30 25 26 24 24 23 19 18 20 18 17 17 18 19 20 21
30 29 31 36 28 30 24 13 24 18 16 22 19 25 24 26 18 31 24 29 28 24 31 37 35 27 25 28 33 32 30 30 31 32 29 26 24 27 30 31 33 29 22 21 21
30 6 23 30 31 22 22 18 18 21 22 25 22 26 24 22 22 22 22 24 27 27 28 32 33 30 25 27 29 27 27 28 29 25 24 25 26 26 27 28 34 34 31 23 21
33 32 33 16 23 28 28 23 19 20 27 26 22 26 26 24 23 21 24 26 28 29 32 29 24 25 24 23 24 23 27 28 25 27 25 19 16 19 22 31 35 36 36 36 32
33 30 34 30 31 27 27 18 22 27 29 26 22 28 28 26 26 27 27 27 26 27 27 30 25 24 23 23 22 22 21 22 26 23 21 24 28 31 31 38 36 36 37 36 34
40 39 34 29 29 25 23 26 26 28 26 29 29 30 29 28 30 30 30 29 28 28 26 25 24 23 20 21 21 19 19 18 19 20 20 24 29 37 37 35 34 34 36 35 37

GFSSW_sfc_30mbdewp_015.txt.gz
Dewpoint
56 56 56 56 56 56 56 58 58 58 58 58 59 59 59 59 56 39 27 37 46 53 53 45 41 42 43 43 47 44 32 26 31 34 35 35 35 30 34 34 36 37 36 37 42
58 58 58 58 58 58 58 58 58 58 58 59 59 58 58 60 46 32 34 49 51 52 44 40 37 40 36 39 40 37 27 25 34 36 34 34 33 30 31 32 33 35 36 38 47
56 57 58 58 58 57 57 57 58 58 58 59 58 57 59 58 29 26 47 51 51 45 43 41 40 38 32 38 35 32 21 28 28 37 37 34 32 30 30 30 32 32 34 38 46
57 57 58 57 57 57 57 57 58 58 58 58 57 58 59 43 5 28 54 50 50 46 37 37 36 34 31 27 35 29 33 35 36 35 34 31 31 30 31 33 32 34 35 38 44
56 57 57 57 57 57 57 57 57 57 57 57 57 58 41 22 21 31 50 46 38 35 36 35 33 34 28 31 33 32 32 33 35 36 33 31 30 29 28 31 32 34 35 36 41
56 57 57 57 57 57 57 57 57 57 57 57 57 56 34 7 26 38 37 30 33 34 34 35 35 34 32 29 28 28 28 29 31 32 32 30 30 30 30 31 29 31 33 35 37
56 56 57 57 57 57 57 57 57 57 56 57 56 46 29 12 31 29 31 27 30 33 33 37 36 34 32 28 27 26 25 26 27 29 29 31 26 25 30 29 28 29 31 34 37
56 56 56 56 56 57 57 57 57 57 56 56 55 37 17 28 33 30 28 23 27 31 32 35 37 34 33 32 28 23 24 19 23 29 30 28 18 23 26 27 26 29 29 33 35
55 54 55 56 57 56 56 56 55 55 55 55 41 34 12 33 19 20 24 20 26 31 34 34 34 32 30 28 23 24 11 18 17 24 28 27 23 25 26 26 26 26 27 30 32
53 53 54 55 55 56 55 53 51 50 51 50 39 17 19 21 21 22 22 26 29 31 30 31 31 28 28 25 -5 4 15 17 16 17 25 23 24 26 27 27 25 25 26 28 30
53 53 53 54 55 55 46 39 29 29 31 16 22 14 22 24 23 22 24 25 29 29 19 30 19 8 14 25 23 21 19 19 19 20 19 18 19 21 22 26 26 26 26 27 28
53 53 54 54 54 53 44 36 36 36 26 33 33 32 33 33 26 20 26 18 23 16 29 24 13 16 22 23 23 22 21 19 21 22 22 20 18 20 21 20 21 24 25 25 26
53 53 54 54 52 41 40 40 43 36 24 24 30 31 30 31 26 26 24 23 20 21 25 13 12 27 24 23 21 23 20 18 16 19 22 21 15 15 20 22 23 26 26 26 27
53 53 53 49 33 35 42 47 44 34 20 25 26 25 26 28 23 25 25 22 22 19 23 23 26 23 23 23 23 20 21 19 19 20 14 22 10 14 14 14 20 23 27 27 28
53 52 52 41 31 41 42 47 41 32 6 25 22 26 24 22 23 27 24 25 18 20 24 16 20 22 23 21 25 20 25 23 24 23 23 21 19 11 16 14 14 16 20 24 26
53 52 51 46 42 42 44 42 33 17 10 24 29 29 26 22 23 25 26 25 25 24 25 23 26 23 22 23 26 26 25 25 28 25 19 18 17 13 13 14 17 16 17 18 21
53 51 49 48 42 48 41 32 16 8 29 29 29 29 29 27 24 25 25 24 21 20 19 21 20 24 24 21 23 23 21 17 14 19 16 19 18 15 16 17 17 18 22 26 30
51 52 50 38 45 45 32 22 4 28 29 31 29 29 26 31 29 30 28 27 38 30 22 23 20 20 30 30 27 25 22 19 14 13 14 18 16 16 18 20 27 29 30 30 32
49 46 36 34 42 38 27 17 27 29 29 30 27 26 28 31 29 25 29 33 38 39 34 33 29 31 30 32 28 24 23 24 23 24 21 20 20 21 21 25 26 24 20 20 26
46 43 33 33 41 33 27 28 31 25 20 29 25 29 26 30 24 23 21 40 39 32 40 37 26 31 34 30 27 31 30 25 25 20 17 19 20 21 24 27 25 22 20 19 27
41 32 32 32 39 32 27 31 33 27 18 22 30 26 32 26 23 19 18 29 27 25 32 33 34 24 25 21 25 21 19 17 25 23 21 20 22 28 25 26 18 13 21 22 30
31 14 30 35 28 32 28 30 24 20 21 22 27 25 24 21 14 23 28 28 28 26 25 28 32 20 18 21 22 23 28 21 18 15 19 18 16 21 25 15 14 21 21 23 26
25 20 21 23 -12 -2 12 14 22 16 24 22 21 24 24 21 4 17 23 28 26 25 23 26 23 13 2 11 17 17 18 17 19 20 13 11 7 12 15 17 20 24 28 28 33
16 -16 14 27 28 14 11 13 10 25 27 25 24 27 23 21 22 18 21 23 26 24 24 28 28 22 11 14 24 20 21 22 22 19 18 17 17 19 21 22 31 33 35 33 33
27 26 30 3 20 24 23 20 16 22 28 24 25 29 28 25 25 24 23 22 27 27 28 29 24 23 22 22 22 22 22 22 20 20 19 19 20 22 26 31 29 29 30 31 32
16 18 28 28 29 16 17 21 24 27 26 21 25 28 28 26 23 23 26 27 26 26 25 27 22 23 22 22 20 19 20 20 20 19 19 20 22 28 32 30 28 28 29 31 33
37 38 16 27 24 10 20 25 28 26 24 27 27 28 27 26 29 30 30 30 29 26 24 25 23 21 18 19 19 18 18 12 11 14 16 19 22 30 31 27 26 28 30 31 33

GFSSW_sfc_30mbdewp_021.txt.gz
Dewpoint
55 55 55 54 55 55 56 56 58 58 58 58 58 59 58 59 56 42 21 42 48 53 54 39 37 35 37 38 43 43 25 19 21 22 25 27 31 31 38 38 37 40 40 39 40
57 57 56 56 56 57 57 58 57 57 58 58 59 58 58 59 38 21 44 50 52 50 35 32 30 31 26 29 33 28 18 14 19 28 26 27 27 29 28 30 26 33 37 40 41
57 57 57 57 57 57 57 57 57 57 58 58 58 58 58 56 26 29 50 52 50 48 34 35 33 30 25 30 26 21 18 13 23 21 26 24 23 23 26 28 22 21 27 34 39
54 55 57 57 57 57 57 57 57 57 58 58 58 58 58 43 15 30 52 49 48 40 32 30 29 26 24 21 28 24 16 20 21 24 27 23 22 21 24 24 24 25 32 32 38
55 56 57 57 57 57 57 57 57 57 58 58 57 58 47 25 24 35 45 41 33 32 30 29 23 24 20 20 22 22 21 22 24 25 26 25 24 23 23 22 22 24 25 33 33
56 57 57 57 57 57 57 57 57 57 57 57 57 53 36 13 25 31 29 25 28 30 30 31 30 30 24 24 22 24 26 22 21 21 21 20 22 24 21 22 21 23 23 23 30
56 56 56 57 57 57 57 57 57 57 56 56 54 43 20 25 29 25 28 25 27 29 30 33 34 29 30 23 28 25 21 17 16 15 19 25 21 20 21 22 21 18 16 18 19
55 55 55 56 56 57 56 56 55 55 54 53 53 36 17 29 29 26 25 21 25 28 28 34 35 32 29 26 22 20 17 11 17 22 22 25 10 8 16 20 15 14 10 9 15
54 54 54 55 55 56 56 56 54 54 54 51 39 25 22 31 21 21 24 20 23 28 32 30 31 29 29 25 14 10 10 9 6 16 17 20 17 16 15 15 15 15 14 14 12
54 54 54 54 55 55 55 54 53 52 46 38 29 21 17 19 23 20 21 23 25 26 27 27 25 24 21 17 8 4 3 2 1 4 13 10 11 12 13 14 14 13 14 14 14
54 54 54 54 55 55 49 42 38 33 31 26 22 18 22 25 23 19 20 24 25 25 18 24 16 10 9 13 9 10 9 7 8 11 12 12 15 17 19 18 19 19 18 16 16
54 54 54 54 54 52 49 31 36 38 26 31 30 29 30 30 23 21 24 21 20 18 21 20 20 21 17 19 16 15 15 16 17 17 18 18 19 20 21 21 21 18 16 18 21
54 54 53 54 51 46 37 40 43 38 26 29 30 28 28 29 23 23 23 21 20 19 19 20 21 23 19 19 18 18 17 18 18 19 21 19 16 14 12 18 18 25 27 29 29
54 53 52 50 43 40 41 45 45 40 25 25 25 27 27 27 25 26 25 24 23 21 22 22 23 21 22 21 21 19 23 23 21 21 15 18 13 15 13 15 24 27 27 24 23
53 52 51 42 36 38 41 44 45 39 17 25 27 28 27 25 25 28 27 25 23 22 22 17 20 21 21 19 22 20 23 23 23 21 22 20 17 12 15 17 23 25 23 20 18
53 50 49 41 39 44 46 45 40 25 17 28 31 29 27 28 27 29 27 28 27 25 23 22 24 24 23 24 24 25 25 22 21 23 20 15 15 12 14 19 24 25 25 24 19
50 46 45 42 40 44 45 37 24 15 27 27 28 27 26 27 26 28 30 33 30 26 17 20 21 24 29 26 27 26 19 10 8 21 17 14 12 12 15 25 24 18 18 16 16
49 48 35 34 42 43 39 27 15 25 27 30 27 24 24 27 26 20 22 24 28 28 26 24 18 23 24 25 26 25 21 15 7 4 6 16 11 9 18 22 18 11 6 5 15
48 38 28 26 40 40 32 16 28 27 24 25 24 20 25 28 15 11 28 32 29 24 24 21 19 23 16 26 23 18 15 23 23 18 13 11 9 9 10 13 8 4 3 4 13
41 29 19 25 39 37 23 28 27 20 17 19 19 22 17 18 12 7 6 27 27 25 23 20 8 10 22 15 20 19 10 6 9 3 -3 -8 -3 1 10 7 5 6 6 7 17
41 27 13 24 37 24 22 31 27 15 19 19 17 9 20 15 6 -0 9 26 24 23 21 16 9 9 17 6 5 5 5 9 11 13 7 6 6 7 8 7 9 8 6 10 21
28 10 11 20 15 20 25 20 21 14 13 21 20 19 16 10 2 6 13 23 26 24 13 14 10 1 5 8 7 6 8 16 12 11 12 11 11 10 9 10 8 6 9 17 21
7 5 7 12 -5 1 14 16 19 14 18 15 18 16 14 11 1 6 12 28 27 20 15 16 10 7 5 17 17 17 17 12 14 16 15 11 11 14 11 8 6 7 12 19 21
7 6 5 9 9 0 3 5 15 23 18 19 20 19 13 10 12 9 11 14 24 19 22 23 14 10 7 8 13 13 14 14 13 13 11 11 9 10 7 5 6 12 16 21 22
20 18 21 8 5 7 6 4 8 15 18 16 18 16 13 5 7 8 16 14 14 22 22 21 16 15 14 15 15 14 13 13 12 11 10 10 8 8 5 7 13 16 20 21 22
16 14 14 14 12 3 8 9 10 14 12 10 10 19 17 14 13 12 13 14 15 18 19 20 19 19 18 17 15 13 12 12 12 11 9 5 4 5 9 13 18 21 21 20 20
25 23 17 16 7 1 10 14 16 15 17 19 17 17 16 18 21 21 22 22 21 21 21 22 21 19 15 14 13 12 11 9 6 6 7 6 8 11 15 20 21 22 22 22 23

GFSSW_sfc_30mbdewp_024.txt.gz
Dewpoint
55 55 54 54 54 55 56 55 57 58 58 58 59 59 59 59 57 46 33 43 50 53 55 48 40 34 36 38 43 41 32 24 20 22 29 29 25 27 30 35 34 32 41 40 46
57 57 56 56 56 56 57 58 57 57 58 58 59 59 58 59 50 33 46 48 53 54 39 32 30 31 31 30 36 34 29 24 22 24 24 25 24 26 23 27 27 25 30 40 45
56 57 57 57 57 57 57 57 57 57 58 58 59 58 58 57 43 38 51 52 52 49 36 33 32 31 27 31 29 27 25 25 21 23 22 26 25 22 20 21 28 28 24 33 40
54 55 57 57 57 57 57 57 57 57 58 58 58 58 59 47 22 38 47 46 46 45 33 28 29 27 26 23 25 26 25 21 21 24 25 26 26 24 23 23 25 23 24 27 39
56 57 57 57 57 57 57 57 57 57 58 58 58 58 47 37 26 40 38 44 37 31 29 30 26 25 24 22 21 20 23 24 25 25 25 25 25 25 25 26 26 25 24 25 33
56 57 57 57 57 57 57 57 57 58 58 57 57 55 46 21 24 29 26 24 26 29 29 31 30 30 25 24 24 23 25 25 22 22 22 21 23 24 24 25 23 22 23 24 23
56 56 56 56 56 57 57 57 57 57 56 55 56 45 31 26 27 25 26 24 25 26 30 32 32 30 28 26 27 29 23 22 22 20 20 25 19 19 22 23 22 22 18 20 22
55 55 55 56 56 56 57 57 56 55 54 53 54 41 22 28 30 24 23 20 23 27 27 33 33 31 28 29 22 18 19 17 17 20 27 22 18 23 19 18 18 17 16 17 16
55 55 55 54 55 56 56 56 54 53 52 50 42 35 25 29 22 21 24 21 23 27 30 27 31 29 29 27 22 18 12 12 10 14 18 20 15 19 19 16 16 17 16 16 15
55 55 55 55 55 55 56 55 53 51 48 38 31 24 17 20 23 20 20 23 25 26 28 29 27 25 26 22 16 12 9 9 9 9 13 15 16 17 19 19 20 20 18 19 19
55 55 54 54 55 55 51 41 41 36 30 27 23 20 23 23 23 19 21 22 24 24 22 27 22 16 19 17 15 12 10 11 15 19 19 21 21 21 22 23 24 26 28 29 29
54 54 54 54 54 53 49 38 37 39 28 30 29 28 29 29 23 21 23 21 20 20 20 20 22 22 20 18 19 20 19 19 20 22 20 20 20 22 23 27 29 29 26 25 24
55 54 53 53 52 45 41 41 43 40 32 28 30 27 27 30 23 23 23 22 21 21 21 20 22 24 19 20 20 20 19 21 22 23 23 21 17 20 27 29 25 23 21 19 19
54 52 52 50 42 40 41 44 45 41 29 27 27 28 28 27 25 27 25 25 24 22 23 22 23 21 22 21 20 19 22 23 23 22 18 21 18 19 25 25 23 21 22 21 19
52 50 50 46 41 39 42 44 44 41 25 26 28 30 26 25 27 29 27 26 24 23 23 19 20 22 22 21 23 21 24 25 25 24 23 23 21 18 25 25 24 25 22 13 18
52 51 49 42 42 43 45 44 41 31 19 29 30 28 27 27 28 29 30 31 33 29 27 23 24 23 24 27 26 25 26 22 20 19 20 21 22 17 21 24 16 11 8 7 13
48 46 47 41 41 43 44 39 30 20 26 28 28 26 25 26 25 26 28 30 26 23 23 25 22 26 28 22 27 27 22 14 13 22 21 18 15 18 22 14 9 7 8 9 9
47 48 34 35 42 43 41 32 21 25 28 29 26 22 25 25 25 15 24 26 25 23 23 22 19 24 21 22 23 20 20 18 12 9 19 19 13 20 15 9 9 11 11 11 11
46 43 27 25 40 41 37 25 30 27 21 22 23 20 27 26 16 12 27 32 28 24 19 19 20 20 16 24 22 19 15 14 19 19 16 15 13 19 11 9 11 11 11 10 12
45 23 18 23 37 39 32 29 24 18 18 18 21 19 17 17 12 4 5 25 25 23 22 16 9 6 19 17 15 18 16 9 9 5 3 1 2 3 9 10 13 11 10 8 12
43 32 12 21 32 34 28 30 21 12 20 19 17 10 18 14 4 -1 12 26 24 23 20 15 9 8 8 6 6 9 7 7 7 7 4 9 10 12 10 13 13 11 8 9 17
31 17 13 15 21 21 26 23 18 12 12 18 19 17 14 9 6 4 12 24 26 23 12 15 14 5 4 9 13 11 6 7 14 13 15 13 13 14 13 13 13 11 8 13 20
11 7 10 13 4 11 17 17 18 14 17 16 17 15 11 10 5 6 10 28 26 19 18 18 9 7 8 17 17 15 17 18 14 16 16 15 14 16 15 13 12 10 12 17 20
15 14 9 9 7 10 8 8 17 20 16 17 17 16 13 9 11 10 11 21 25 21 23 22 15 9 6 11 14 14 15 14 14 14 13 13 13 13 12 12 11 12 15 20 21
21 18 22 12 5 4 5 4 13 16 15 15 17 15 12 6 6 7 14 13 15 25 21 22 17 16 16 16 17 16 15 14 13 13 12 13 12 13 11 8 11 13 19 22 23
23 20 14 11 5 4 9 7 8 10 10 10 9 18 15 13 13 13 14 14 15 18 19 20 18 20 20 19 17 14 14 14 13 13 12 9 8 10 12 11 13 21 22 22 23
23 23 23 13 5 3 12 12 13 11 16 17 16 14 15 20 24 21 21 20 19 19 20 20 21 21 18 16 16 15 13 10 11 11 11 9 12 15 21 25 24 25 24 22 26

GFSSW_sfc_30mbdewp_027.txt.gz
Dewpoint
54 55 54 54 54 55 56 56 57 58 58 58 59 59 60 59 56 50 36 43 50 55 55 46 45 41 38 38 41 42 26 25 22 22 25 28 24 26 26 29 33 34 39 40 47
57 56 56 56 56 56 57 58 58 58 58 59 59 59 58 59 52 42 45 49 53 53 42 34 32 31 32 32 38 35 32 23 27 22 22 23 25 26 23 21 22 25 29 44 48
56 57 57 57 57 57 57 57 57 57 58 58 59 58 58 58 46 41 50 49 46 49 43 36 33 32 28 31 31 30 22 27 25 23 25 23 25 27 24 20 22 25 28 36 46
55 56 57 57 57 57 57 57 57 57 58 59 58 58 58 51 23 41 42 41 42 47 41 32 30 29 27 26 28 25 28 27 26 26 26 24 26 24 25 24 25 26 25 31 43
57 57 57 57 57 57 57 57 57 58 58 58 57 58 48 40 26 40 37 38 44 34 31 30 30 29 25 25 24 21 22 27 27 27 25 25 23 24 24 26 26 25 25 25 27
56 57 57 57 57 57 57 57 57 58 57 57 57 57 46 28 25 36 27 26 26 28 30 31 31 31 26 25 26 25 27 27 25 22 23 21 22 25 24 25 25 24 24 25 24
56 56 56 56 56 56 57 57 56 56 55 55 57 49 36 25 28 26 26 24 24 26 29 33 33 31 30 26 29 24 22 23 22 23 23 24 21 19 20 21 22 21 17 16 17
55 56 55 55 55 56 56 56 56 53 53 52 56 43 22 28 31 24 25 23 24 26 27 32 31 32 29 30 27 18 21 16 18 20 26 18 16 20 20 19 16 15 16 17 31
55 55 55 55 55 55 56 56 55 56 56 53 45 39 25 28 24 21 23 22 23 25 29 29 30 30 27 27 23 22 14 12 10 14 20 22 15 18 21 19 18 17 19 29 30
55 55 54 54 55 55 55 56 54 52 48 44 38 23 18 21 23 21 21 21 26 26 27 30 29 26 26 25 17 13 10 10 9 12 19 20 21 22 23 23 27 28 28 26 25
55 55 54 54 54 55 51 42 41 36 35 28 26 23 24 22 23 23 21 21 24 25 22 28 21 16 19 18 18 18 17 17 19 21 22 21 20 21 28 27 22 20 19 20 22
55 54 53 53 54 53 48 44 39 38 28 30 27 28 29 30 24 22 24 22 21 20 22 21 20 22 22 20 19 20 20 20 22 25 23 21 20 25 22 21 19 18 18 19 22
55 54 52 53 51 44 43 42 44 41 31 28 30 27 27 31 25 24 25 25 22 21 23 21 23 23 20 22 21 21 21 22 22 25 24 21 19 25 22 21 21 19 19 21 23
53 52 52 50 41 43 42 44 46 42 28 27 29 28 29 28 25 28 26 25 25 22 23 21 23 23 23 22 23 20 24 23 23 23 16 24 19 23 22 22 19 13 16 21 23
53 50 50 49 40 41 43 45 43 41 27 26 28 30 28 26 28 29 27 26 24 28 25 19 21 22 22 24 26 22 25 25 26 25 25 24 22 24 24 12 7 8 8 12 23
51 51 50 47 45 43 46 45 42 27 19 29 30 28 27 27 28 30 31 31 31 28 29 25 25 24 25 25 26 26 24 16 20 22 17 18 21 23 19 8 9 10 10 10 12
48 48 47 42 42 43 44 41 27 23 27 28 28 25 25 26 23 23 27 24 23 14 21 25 25 27 21 21 26 19 17 12 12 16 16 20 13 16 8 10 11 11 10 11 11
47 47 36 35 42 43 43 33 23 27 27 28 26 23 26 22 24 15 27 28 25 22 22 17 17 25 15 24 21 19 19 18 7 12 18 18 8 12 10 13 13 12 11 10 11
46 45 36 25 40 41 37 29 29 22 19 19 22 22 27 26 15 16 28 31 24 22 15 20 19 14 23 22 20 19 14 15 13 18 15 17 14 10 12 13 13 13 12 9 10
43 33 17 22 38 39 32 27 18 15 19 20 21 18 18 14 9 1 25 26 24 23 23 15 5 9 19 19 17 15 17 13 10 3 4 6 9 14 11 13 14 13 12 12 15
41 34 15 18 34 35 31 25 16 12 19 19 19 16 18 12 7 2 23 25 25 22 20 13 11 4 5 9 8 8 6 8 9 7 3 3 7 13 14 15 14 13 13 13 19
34 17 10 17 19 25 22 23 17 15 16 17 19 17 12 11 8 6 22 25 26 21 16 16 13 6 2 10 16 11 7 7 5 7 15 14 11 15 16 15 14 14 14 14 21
10 9 13 15 6 17 17 19 19 18 18 18 18 15 11 11 5 8 22 29 22 18 18 19 9 0 2 17 17 14 14 15 15 18 14 11 10 16 16 15 15 14 13 17 22
22 14 14 11 13 13 9 14 14 20 16 17 18 17 13 10 11 11 15 26 25 20 25 21 17 6 -8 6 16 16 17 17 15 13 13 14 14 14 14 14 14 12 17 21 23
22 14 22 8 5 6 5 11 15 17 14 14 17 14 12 7 9 11 14 17 24 26 25 23 19 19 18 19 20 19 18 18 17 16 14 14 13 14 14 15 22 24 25 25 24
24 18 15 11 7 7 10 8 12 8 13 11 12 16 14 12 14 13 17 14 14 22 19 21 17 20 19 20 20 18 18 17 17 17 16 14 13 14 19 28 27 27 26 25 25
33 29 21 13 7 6 12 12 12 14 15 19 16 14 16 22 24 23 22 21 20 19 19 20 21 20 16 19 19 15 16 14 14 13 13 11 13 24 26 26 25 25 26 25 25

GFSSW_sfc_30mbdewp_030.txt.gz
Dewpoint
54 54 54 54 54 55 55 56 57 58 58 58 59 59 59 59 56 48 36 42 49 56 53 46 43 42 40 37 42 41 20 21 21 20 20 26 22 25 27 22 23 32 31 38 46
56 55 56 56 56 56 57 58 58 57 58 58 59 59 58 59 50 41 41 48 53 52 38 36 32 33 31 34 39 34 24 13 24 24 21 23 24 25 24 23 22 21 26 44 49
57 56 57 57 57 57 57 57 57 57 58 58 59 58 58 58 42 39 47 50 46 49 43 39 34 32 29 32 34 33 20 25 25 25 28 25 24 27 23 19 21 20 25 26 47
55 56 57 57 57 56 57 57 57 57 58 58 58 58 58 50 17 38 41 43 47 49 39 34 30 29 27 27 29 25 28 28 27 28 28 25 26 24 24 21 25 26 27 27 42
56 57 57 57 57 57 57 57 57 57 58 57 58 58 49 35 26 37 39 38 37 34 31 30 30 29 24 26 24 24 24 26 28 28 27 25 21 22 22 24 27 27 27 27 29
56 57 57 57 57 57 57 57 57 57 57 56 57 57 45 24 26 38 30 26 26 28 32 32 31 32 27 24 26 26 27 26 27 25 25 22 22 24 21 25 22 24 28 32 32
56 56 56 56 56 56 56 56 57 56 55 56 56 50 34 24 29 26 26 24 24 26 27 32 33 28 30 24 29 26 20 19 20 24 22 25 20 21 23 22 18 19 31 31 30
55 56 56 55 55 56 56 56 56 56 56 56 55 43 20 28 30 24 25 25 24 25 27 30 30 31 29 29 27 21 20 15 17 14 24 20 16 18 22 22 21 29 29 29 27
55 55 55 55 55 55 56 55 54 55 56 56 44 37 23 27 23 21 23 22 24 25 27 30 30 30 27 26 20 18 13 12 11 13 22 22 19 23 26 24 26 26 25 25 26
55 55 54 54 54 55 54 54 51 49 49 44 41 20 20 21 23 21 21 21 25 26 27 29 29 25 24 24 11 14 11 11 13 16 24 22 23 23 26 25 22 21 22 24 24
55 54 53 53 54 54 48 42 38 31 32 26 25 23 25 23 23 22 21 22 23 24 22 29 22 17 18 18 18 18 17 19 20 23 22 22 22 20 19 19 19 19 21 23 24
55 54 53 52 53 51 46 40 39 36 28 30 28 29 29 29 23 23 25 22 21 19 22 22 19 23 22 21 22 22 20 20 23 25 23 21 20 20 18 19 19 20 21 23 23
54 54 52 52 50 43 43 42 45 40 27 28 30 27 27 30 24 24 25 25 22 21 23 21 22 24 22 23 21 21 19 22 22 25 24 22 22 20 20 14 13 19 22 24 23
52 51 51 50 42 44 42 44 46 41 27 26 28 28 29 29 26 28 26 25 25 24 24 21 24 24 23 21 24 19 24 24 25 24 16 24 15 23 18 9 9 9 14 22 23
53 50 49 46 40 41 43 45 43 40 21 27 28 30 28 26 28 29 29 29 25 29 26 18 21 22 22 24 26 22 26 25 25 24 24 23 23 23 12 8 9 9 10 11 22
52 52 50 46 44 43 45 44 41 22 14 29 30 28 27 28 27 31 29 28 28 25 28 28 27 26 25 24 26 22 19 17 24 24 16 19 20 22 13 9 10 11 10 10 12
49 48 47 43 41 43 44 39 18 23 29 28 28 25 27 25 21 24 25 22 21 8 15 23 26 24 20 19 22 19 20 5 11 14 9 20 15 16 10 11 11 11 12 11 11
46 46 40 36 42 43 40 30 24 28 26 26 24 24 26 20 21 24 29 29 24 21 20 16 14 17 20 21 16 19 20 10 -4 4 15 18 8 9 12 13 13 12 13 13 11
47 44 33 23 40 42 35 27 27 22 19 18 23 22 27 22 13 26 27 29 23 22 12 11 11 12 21 20 18 14 13 19 13 17 14 15 10 10 13 14 14 14 14 14 13
42 30 15 21 40 38 30 25 16 15 20 21 22 18 22 13 8 3 24 26 24 22 22 15 -1 9 13 18 11 13 17 14 11 1 -1 5 10 11 11 14 15 13 14 14 14
42 20 13 20 36 33 27 23 12 13 20 19 19 16 15 10 6 8 24 25 25 18 17 13 10 -0 6 8 8 8 7 10 10 9 2 1 2 13 14 15 14 14 15 16 16
30 -0 11 22 18 22 22 20 16 17 19 18 18 14 12 10 5 12 22 25 25 19 14 17 13 2 1 7 13 9 8 9 5 3 14 14 10 15 16 15 15 15 15 15 20
7 8 16 14 5 17 18 18 19 18 17 18 17 15 12 10 4 11 24 28 21 16 10 12 7 -5 2 16 16 14 15 16 16 19 13 11 8 15 15 15 16 16 19 22 23
22 11 13 11 15 13 11 14 10 19 16 17 16 17 12 10 10 11 21 27 23 20 27 20 11 -2 -11 2 16 12 16 18 17 14 12 12 11 13 14 16 15 22 25 25 25
18 17 21 6 6 7 8 16 12 12 14 15 15 14 10 5 9 12 15 21 25 25 25 21 15 18 16 18 19 19 19 19 18 17 15 12 14 16 16 15 22 27 27 26 25
22 13 15 11 7 8 10 9 13 12 12 10 12 15 13 9 11 12 15 14 14 25 22 23 15 21 18 19 20 19 20 20 19 18 17 17 16 17 15 25 27 26 25 21 21
35 32 14 15 7 8 12 11 12 12 15 18 18 16 14 16 24 23 21 21 20 20 20 20 20 20 9 19 18 11 15 17 16 15 15 12 14 16 21 24 21 19 19 20 24